Starlink 30105

operational
NORAD ID: 57433 Int'l Des: 2023-105 Owner: SPXS Country: US Constellation: starlink
LEOCIRCULAR

Starlink 30105について

説明を読み込み中...

リアルタイム位置

3D地球を読み込み中...

次回通過

高度履歴

Altitude vs Time

uPlot chart will show altitude changes over time

軌道要素

1 57433U 23105D 26034.87279205 -.00000712 00000-0 -16373-4 0 9994
2 57433 42.9987 221.8129 0000793 303.4788 56.5988 15.27574516143158
Epoch: Feb 3, 2026 • Age: 18 hours

現在のステータス

高度 486.2 km
速度 7.63 km/s
衛星直下点 40.80°N, 24.3°W
打ち上げ日 Jul 24, 2023
運用期間 2.5 years
タイプ internet

技術仕様

分類 Payload
質量 730.00 kg
乾燥質量 700.00 kg
総質量 730.00 kg
長さ 0.30 m
直径 4.10 m
スパン 29.00 m
形状 Box + pan
製造者 SPXS
バスタイプ Starlink V2M
フェーズステータス In Orbit
所有者/国 SPXS/US

大規模コンステレーション

Loading constellations...